Flag for Pakistan Weather past 2 weeks in Murree, Pakistan

Now
79 °F

Broken clouds.


Feels Like: 82 °F
Forecast: 58 / 68 °F
Wind: 18 mph from East

Location: Islamabad Airport

Current Time: Sep 3, 2014 at 11:31:24 AM

Latest Report: Sep 3, 2014 at 11:00 AM


Visibility: N/A

Pressure: 29.83 "Hg

Humidity: 79%

Dew point: 72 °F

Location of MurreeLocation

Historic Weather in Murree — Graph

°F

Murree temperature yesterday

Maximum temperature yesterday: 86 °F (at 3:00 PM)
Minimum temperature yesterday: 73 °F (at 1:00 AM)
Average temperature yesterday: 77 °F

Past Weeks' High & Low Weather Summary

 TemperatureHumidityPressure
High97 °F (Aug 21, 4:00 PM)94% (Aug 22, 11:00 PM)29.86 "Hg (Aug 22, 11:00 PM)
Low68 °F (Aug 22, 11:00 PM)39% (Aug 30, 2:00 PM)29.59 "Hg (Aug 31, 4:00 PM)
Average83 °F66%29.74 "Hg
* Reported Aug 19 10:00 AM — Sep 3 10:00 AM, Murree, Weather by CustomWeather, © 2014

Note: Actual official high and low records may vary slightly from our data, if they occured in-between our weather recording intervals... More about our weather records

Advertising

Murree weather history for previous 24 hours

 ConditionsComfort  
Time TempWeatherWind HumidityBarometerVisibility
10:00 AM
Sep 3
79 °FBroken clouds.7 mph74%29.83 "HgN/A
9:00 AM79 °FScattered clouds.7 mph74%29.83 "HgN/A
8:00 AM77 °FScattered clouds.No wind79%29.83 "HgN/A
7:00 AM77 °FScattered clouds.No wind69%29.80 "Hg5 mi
6:00 AM75 °FBroken clouds.7 mph78%29.80 "Hg4 mi
5:00 AM75 °FPassing clouds.5 mph78%29.80 "Hg4 mi
4:00 AM75 °FPassing clouds.5 mph78%29.80 "Hg4 mi
3:00 AM75 °FPassing clouds.5 mph78%29.80 "Hg4 mi
2:00 AM75 °FPassing clouds.No wind78%29.80 "Hg4 mi
1:00 AM75 °FPassing clouds.No wind78%29.80 "HgN/A
11:00 PM
Sep 2
75 °FPassing clouds.5 mph78%29.80 "HgN/A
10:00 PM75 °FClear.No wind78%29.80 "Hg10 mi
9:00 PM75 °FClear.No wind78%29.83 "Hg10 mi
8:00 PM75 °FPassing clouds.No wind78%29.80 "HgN/A
7:00 PM75 °FPassing clouds.7 mph78%29.80 "HgN/A
6:00 PM77 °FScattered clouds.16 mph74%29.80 "HgN/A
5:00 PM81 °FScattered clouds.21 mph70%29.80 "HgN/A
4:00 PM82 °FScattered clouds.21 mph66%29.80 "HgN/A
3:00 PM86 °FBroken clouds.14 mph59%29.80 "HgN/A
2:00 PM82 °FScattered clouds.5 mph66%29.80 "HgN/A
1:00 PM81 °FScattered clouds.9 mph70%29.83 "HgN/A
12:00 PM79 °FBroken clouds.18 mph70%29.86 "HgN/A
11:00 AM77 °FBroken clouds.18 mph79%29.86 "HgN/A
Weather by CustomWeather, © 2014

See weather overviewHow to use our weather pages